Regional Weather Roundup
Issued by NWS

Home | Current Version | Previous Version | Text Only | Print | Product List | Glossary Off
Versions: 1 2 3 4 5 6 7 8 9 10 11 12 13 14 15 16 17 18 19 20 21 22 23 24 25 26 27 28 29 30 31 32 33 34 35 36 37 38 39 40 41 42 43 44 45 46 47 48 49 50

000
ASUS43 KLOT 191100
RWRIL

ILLINOIS REGIONAL WEATHER ROUNDUP
NATIONAL WEATHER SERVICE CHICAGO/ROMEOVILLE IL
500 AM CST FRI DEC 19 2014

NOTE: "FAIR" INDICATES FEW OR NO CLOUDS BELOW 12,000 FEET WITH NO
SIGNIFICANT WEATHER AND/OR OBSTRUCTIONS TO VISIBILITY.

* THESE STATIONS ARE NOT UNDER NWS QUALITY CONTROL. THEY ALSO MAY NOT
  REPORT WEATHER SUCH AS PRECIPITATION OR FOG.

ILZ001-002-007-009-015-016-024-191200-
NORTHWEST ILLINOIS

CITY           SKY/WX    TMP DP  RH WIND       PRES   REMARKS
MOLINE         CLEAR     16  13  88 CALM      30.29F
STERLING*      CLOUDY    25  18  74 NW6       30.29S WCI  18
$$

ILZ003-004-008-010-011-017-018-191200-
NORTH CENTRAL ILLINOIS

CITY           SKY/WX    TMP DP  RH WIND       PRES   REMARKS
ROCKFORD       FLURRIES  27  21  78 VRB5      30.30S WCI  22
$$

ILZ005-006-012>014-019>023-191200-
NORTHEAST ILLINOIS

CITY           SKY/WX    TMP DP  RH WIND       PRES   REMARKS
CHICAGO-OHARE  FLURRIES  28  23  81 N6        30.26S WCI  22
CHICAGO-MIDWAY FLURRIES  30  23  75 NW5       30.27S WCI  25
AURORA         CLOUDY    25  19  78 W5        30.28S WCI  19
WAUKEGAN       NOT AVBL
DUPAGE AIRPORT CLOUDY    27  21  78 NW3       30.26F
WHEELING       CLOUDY    28  22  78 N5        30.29S WCI  23
NORTHERLY ISL    N/A     30  25  81 W6          N/A  WCI  24
$$

LMZ740>746-191200-
SOUTHERN LAKE MICHIGAN

STATION/POSITION SKY/WX   TEMP    WIND        PRES    VSBY  WAVE
                          AIR SEA DIR/SP/G                  HT/PER
                          (F)     (DEG/KT/KT) (MB)    (MI)  (FT/S)
WAUKEGAN HARBOR            27     300/  6/ 12   N/A
HARRISON CRIB              29     310/  9/ 10   N/A
BURNHAM HARBOR             30     280/  6/  8   N/A
CALUMET HARBOR             29     290/  6/  8 1023.8R
$$

ILZ025>027-034>036-040-047-049-050-058-095>099-191200-
WEST-CENTRAL ILLINOIS

CITY           SKY/WX    TMP DP  RH WIND       PRES   REMARKS
QUINCY         CLOUDY    28  24  85 E3        30.28S
$$

ILZ028>032-037-038-041>044-048-051>054-059>061-191200-
CENTRAL ILLINOIS

CITY           SKY/WX    TMP DP  RH WIND       PRES   REMARKS
DECATUR        CLEAR     22  18  85 CALM      30.30R
PEORIA         CLEAR     19  15  84 CALM      30.30R
LINCOLN*       CLEAR     19  18  93 CALM      30.30F
SPRINGFIELD    CLOUDY    28  22  78 E3        30.30S
TAYLORVILLE    NOT AVBL
$$

ILZ033-039-045-046-055>057-062-063-191200-
EAST-CENTRAL ILLINOIS

CITY           SKY/WX    TMP DP  RH WIND       PRES   REMARKS
CHAMPAIGN      CLEAR     19  15  84 NW3       30.29R
MATTOON        CLEAR     22  19  89 CALM      30.29R
$$

ILZ079-100>102-191200-
SOUTHWEST ILLINOIS

CITY           SKY/WX    TMP DP  RH WIND       PRES   REMARKS
ALTON          CLOUDY    31  28  87 CALM      30.29S
CAHOKIA*       CLOUDY    33  28  81 NE6       30.28F WCI  28
$$

ILZ064>066-069>071-074>076-080>082-084>086-088>090-092>094-191200-
SOUTH-CENTRAL ILLINOIS

CITY           SKY/WX    TMP DP  RH WIND       PRES   REMARKS
CARBONDALE     CLOUDY    31  25  78 NE3       30.26F
MT. VERNON     CLOUDY    27  23  86 N3        30.28F
$$

ILZ067-068-072-073-078-083-087-091-191200-
SOUTHEAST ILLINOIS

CITY           SKY/WX    TMP DP  RH WIND       PRES   REMARKS
LAWRENCEVILLE  CLEAR     25  22  88 N6        30.31R WCI  18
$$

ABBREVIATIONS USED IN REMARKS
   TC - TEMPERATURE IN CELSIUS
  WCI - WIND CHILL INDEX
   HX - HEAT INDEX
  VSB - VISIBILITY
$$



USA.gov is the U.S. government's official web portal to all federal, state and local government web resources and services.